Juneau, AK

2:26 AM AKDT on August 24, 2016 (GMT -0800)
Juneau International

Weather History for PAJN - September, 2013

Change the Weather History Date:

Tuesday, September 17, 2013

  Actual Average Record
Temperature  
Mean Temperature 51 °F 50 °F  
Max Temperature 53 °F 55 °F 70 °F (1995)
Min Temperature 49 °F 44 °F 30 °F (1941)
Degree Days  
Heating Degree Days 14 15  
Month to date heating degree days 168 232  
Since 1 July heating degree days 603 767  
Cooling Degree Days 0 0  
Month to date cooling degree days 0 0  
Year to date cooling degree days 9 2  
Moisture  
Dew Point 48 °F    
Average Humidity 95    
Maximum Humidity 100    
Minimum Humidity 89    
Precipitation  
Precipitation 0.35 in 0.30 in 1.28 in (1948)
Month to date precipitation 4.27 4.68  
Year to date precipitation 45.18 37.85  
Sea Level Pressure  
Sea Level Pressure 29.70 in    
Wind  
Wind Speed 14 mph (East)    
Max Wind Speed 21 mph    
Max Gust Speed 25 mph    
Visibility 9 miles    
Events Rain    
T = Trace of Precipitation, MM = Missing Value Source: NWS Daily Summary

Daily Weather History Graph

Daily Weather History Graph

Search for Another Location

Airport or City:

Trip Planner

Search our weather history database for the weather conditions in past years. The results will help you decide how hot, cold, wet, or windy it might be!

Date:

Astronomy

Sep. 17, 2013 Rise Set
Actual Time 6:33 AM AKDT 7:10 PM AKDT
Civil Twilight 5:53 AM AKDT 7:50 PM AKDT
Nautical Twilight 5:04 AM AKDT 8:38 PM AKDT
Astronomical Twilight 4:11 AM AKDT 9:31 PM AKDT
Moon 6:10 PM AKDT (9/17) 4:19 AM AKDT (9/17)
Length of Visible Light 13h 57m
Length of Day
12h 37m
Waxing Gibbous, 96% of the Moon is Illuminated
Sep 17
Waxing Gibbous
Sep 19
Full
Sep 26
Last Quarter
Oct 4
New
Oct 11
First Quarter

Hourly Weather History & Observations

Time (AKDT) Temp. Dew Point Humidity Pressure Visibility Wind Dir Wind Speed Gust Speed Precip Events Conditions
12:53 AM 51.1 °F 46.9 °F 86% 29.68 in 10.0 mi ESE 16.1 mph - 0.00 in Rain Light Rain
1:53 AM 50.0 °F 46.9 °F 89% 29.68 in 10.0 mi ESE 15.0 mph 23.0 mph 0.00 in Rain Light Rain
2:53 AM 50.0 °F 46.9 °F 89% 29.67 in 10.0 mi East 12.7 mph - 0.00 in   Mostly Cloudy
3:53 AM 48.9 °F 46.9 °F 93% 29.67 in 7.0 mi East 10.4 mph - 0.00 in Rain Light Rain
4:53 AM 48.9 °F 48.0 °F 97% 29.67 in 10.0 mi East 11.5 mph - 0.03 in Rain Light Rain
5:53 AM 48.9 °F 46.9 °F 93% 29.67 in 10.0 mi East 13.8 mph - 0.00 in   Mostly Cloudy
6:53 AM 48.9 °F 46.9 °F 93% 29.66 in 10.0 mi East 12.7 mph - N/A   Overcast
7:53 AM 48.9 °F 46.9 °F 93% 29.66 in 8.0 mi East 13.8 mph - 0.02 in Rain Light Rain
8:53 AM 48.9 °F 46.9 °F 93% 29.67 in 10.0 mi East 17.3 mph - 0.04 in Rain Light Rain
9:53 AM 48.9 °F 48.0 °F 97% 29.68 in 8.0 mi East 11.5 mph - 0.03 in Rain Light Rain
10:53 AM 48.9 °F 48.0 °F 97% 29.68 in 7.0 mi East 11.5 mph - 0.10 in Rain Rain
11:32 AM 48.9 °F 48.0 °F 97% 29.69 in 6.0 mi East 11.5 mph - 0.07 in Rain Light Rain
11:53 AM 50.0 °F 48.0 °F 93% 29.69 in 10.0 mi East 11.5 mph - 0.08 in   Overcast
12:53 PM 51.1 °F 48.0 °F 89% 29.70 in 9.0 mi East 16.1 mph - 0.00 in Rain Light Rain
1:53 PM 52.0 °F 48.0 °F 86% 29.70 in 10.0 mi ESE 17.3 mph - 0.00 in   Overcast
2:53 PM 51.1 °F 48.9 °F 92% 29.70 in 10.0 mi East 13.8 mph - 0.00 in   Overcast
3:53 PM 52.0 °F 48.0 °F 86% 29.70 in 10.0 mi ESE 16.1 mph - 0.00 in   Overcast
4:53 PM 53.1 °F 46.9 °F 80% 29.70 in 10.0 mi ESE 19.6 mph - 0.00 in Rain Light Rain
5:53 PM 51.1 °F 48.0 °F 89% 29.71 in 10.0 mi East 16.1 mph - 0.00 in   Overcast
6:53 PM 51.1 °F 48.0 °F 89% 29.73 in 10.0 mi East 13.8 mph - N/A   Overcast
7:53 PM 50.0 °F 48.0 °F 93% 29.74 in 10.0 mi East 11.5 mph - 0.01 in Rain Light Rain
8:53 PM 51.1 °F 48.0 °F 89% 29.75 in 10.0 mi East 11.5 mph - 0.00 in Rain Light Rain
9:53 PM 50.0 °F 48.0 °F 93% 29.75 in 10.0 mi East 12.7 mph - 0.01 in Rain Light Rain
10:53 PM 50.0 °F 48.0 °F 93% 29.76 in 8.0 mi East 11.5 mph - 0.02 in Rain Light Rain
11:53 PM 50.0 °F 48.0 °F 93% 29.76 in 5.0 mi East 11.5 mph - 0.00 in Rain Light Rain